EW3156 Weather Reports


Display with metric or nautical units.
time (UTC)temp
F
wind
direction
speed
MPH
gust
MPH
rain 1hr
in
rain 24hr
in
rain mn
in
humidity
%
barometer
mb
20260508094505 53 123 0.0 0.0 0.00 0.08 0.00 97 1015.4
20260508093004 53 123 0.0 0.0 0.00 0.08 0.00 97 1015.0
20260508091504 54 123 0.0 0.0 0.00 0.08 0.00 98 1014.6
20260508090002 54 123 0.0 0.0 0.00 0.08 0.00 97 1014.6
20260508084501 54 123 0.0 0.0 0.00 0.09 0.00 97 1014.6
20260508083048 54 123 0.0 0.0 0.00 0.09 0.00 97 1014.4
20260508081536 54 123 0.0 0.0 0.00 0.09 0.00 97 1014.4
20260508080053 55 123 0.0 0.0 0.00 0.09 0.00 97 1014.4
20260508074535 55 123 0.0 0.0 0.00 0.14 0.00 97 1014.6
20260508073038 55 123 0.0 0.0 0.00 0.14 0.00 97 1014.9
20260508071531 55 123 0.0 0.0 0.00 0.14 0.00 96 1015.0
20260508070029 56 123 0.0 0.0 0.00 0.14 0.00 97 1014.7
20260508064540 56 123 0.0 1.0 0.00 0.14 0.00 97 1014.9
20260508063028 56 123 0.0 0.0 0.00 0.14 0.00 96 1014.9
20260508061529 56 123 0.0 0.0 0.00 0.14 0.00 96 1015.0
20260508060025 56 123 0.0 0.0 0.00 0.14 0.00 95 1015.0
20260508054537 56 123 0.0 0.0 0.00 0.15 0.00 96 1015.3
20260508053021 57 123 0.0 0.0 0.00 0.15 0.00 95 1015.5
20260508051520 57 123 0.0 0.0 0.00 0.15 0.00 95 1015.5
20260508050018 57 123 0.0 0.0 0.00 0.15 0.00 95 1015.7
20260508044516 57 123 0.0 0.0 0.00 0.24 0.15 94 1015.7
20260508043015 57 123 0.0 0.0 0.00 0.24 0.15 94 1015.6
20260508041515 57 123 0.0 0.0 0.00 0.24 0.15 94 1015.5
20260508040033 58 123 0.0 0.0 0.00 0.24 0.15 94 1015.6
20260508034511 58 123 0.0 0.0 0.00 0.40 0.15 93 1015.6
20260508033010 58 123 0.0 0.0 0.00 0.40 0.15 93 1015.3
20260508031514 58 123 0.0 1.0 0.00 0.40 0.15 92 1015.5
20260508030008 59 123 0.0 0.0 0.00 0.40 0.15 92 1015.4
20260508024517 59 123 0.0 0.0 0.00 0.46 0.15 91 1015.2
20260508023008 59 123 0.0 0.0 0.00 0.46 0.15 91 1015.0
20260508021502 60 123 0.0 0.0 0.00 0.46 0.15 90 1014.8
20260508020002 60 123 0.0 0.0 0.00 0.46 0.15 90 1014.9
20260508014502 60 123 0.0 1.0 0.00 0.46 0.15 90 1014.8
20260508013001 61 123 0.0 0.0 0.00 0.46 0.15 87 1014.7
20260508011600 62 123 0.0 1.0 0.00 0.46 0.15 86 1014.6
20260508010100 63 123 0.0 1.0 0.00 0.46 0.15 84 1014.4
20260508004602 65 123 0.0 1.0 0.00 0.46 0.15 81 1014.2
20260508003058 66 123 0.0 1.0 0.00 0.46 0.15 79 1014.1
20260508001559 67 123 0.0 1.0 0.00 0.46 0.15 77 1014.1
20260508000101 68 123 0.0 5.0 0.00 0.46 0.15 74 1013.8
20260507234602 69 149 0.0 3.0 0.00 0.46 0.15 75 1013.7
20260507233116 70 215 0.0 3.0 0.00 0.46 0.15 73 1013.6
20260507231557 70 152 0.0 1.0 0.00 0.46 0.15 74 1013.4
20260507230056 70 186 0.0 3.0 0.00 0.46 0.15 72 1013.3
20260507224556 70 260 1.0 4.0 0.00 0.46 0.15 73 1013.2
20260507223154 70 209 0.0 2.0 0.00 0.47 0.15 73 1013.2
20260507221554 71 142 0.0 4.0 0.00 0.47 0.15 71 1013.3
20260507220053 72 191 1.0 7.0 0.00 0.47 0.15 70 1013.2
20260507214553 72 271 0.0 6.0 0.00 0.47 0.15 70 1013.2
20260507213052 73 190 0.0 4.0 0.00 0.60 0.15 70 1013.0
20260507211558 72 150 0.0 5.0 0.00 0.60 0.15 71 1013.1
20260507210106 72 166 0.0 5.0 0.00 0.60 0.15 73 1012.8
20260507204548 71 246 1.0 3.0 0.00 0.60 0.15 73 1013.1
20260507203043 70 107 0.0 3.0 0.00 0.60 0.15 76 1013.2
20260507201543 69 117 1.0 4.0 0.00 0.60 0.15 75 1013.3
20260507200051 70 254 0.0 6.0 0.00 0.60 0.15 76 1013.4
20260507194549 70 63 0.0 4.0 0.00 0.60 0.15 75 1013.4
20260507193039 70 276 1.0 6.0 0.00 0.60 0.15 76 1013.4
20260507191536 68 142 1.0 5.0 0.00 0.60 0.15 78 1013.6
20260507190043 66 277 1.0 8.0 0.00 0.60 0.15 82 1013.6
20260507184542 66 249 1.0 3.0 0.00 0.60 0.15 82 1013.7
20260507183030 65 155 0.0 6.0 0.00 0.60 0.15 85 1014.0
20260507181529 64 160 0.0 5.0 0.00 0.60 0.15 86 1014.3
20260507180028 64 257 0.0 6.0 0.00 0.60 0.15 89 1014.2
20260507174532 63 304 0.0 4.0 0.00 0.60 0.15 88 1014.4
20260507173040 62 287 0.0 4.0 0.00 0.60 0.15 91 1014.6
20260507171523 61 254 1.0 5.0 0.00 0.60 0.15 93 1014.7
20260507170023 61 227 1.0 5.0 0.00 0.60 0.15 92 1014.7
20260507164530 61 268 0.0 4.0 0.00 0.60 0.15 93 1014.8
20260507163018 60 256 1.0 4.0 0.00 0.60 0.15 95 1014.5
20260507161518 60 178 1.0 6.0 0.00 0.60 0.15 94 1014.4
20260507160024 60 143 0.0 7.0 0.00 0.60 0.15 95 1014.1
20260507154514 61 96 0.0 6.0 0.00 0.60 0.15 94 1014.1
20260507153012 62 240 1.0 5.0 0.00 0.60 0.15 94 1013.9
20260507151510 62 250 0.0 4.0 0.00 0.60 0.15 95 1013.7
20260507150010 62 256 1.0 3.0 0.00 0.60 0.15 97 1013.5
20260507144509 61 154 1.0 5.0 0.00 0.60 0.15 98 1013.5
20260507143017 61 83 0.0 2.0 0.00 0.60 0.15 98 1013.5
20260507141515 60 224 0.0 2.0 0.00 0.60 0.15 98 1013.5
20260507140004 60 236 0.0 2.0 0.00 0.60 0.15 99 1013.2
20260507134502 60 224 0.0 3.0 0.00 0.60 0.15 99 1013.1
20260507133100 60 123 0.0 2.0 0.00 0.60 0.15 99 1013.2
20260507131605 60 124 1.0 3.0 0.00 0.60 0.15 99 1012.9
20260507130057 60 80 0.0 2.0 0.00 0.60 0.15 99 1012.5
20260507124603 60 333 1.0 6.0 0.00 0.60 0.15 99 1012.4
20260507123052 60 190 0.0 2.0 0.00 0.60 0.15 99 1012.5
20260507121552 60 218 1.0 3.0 0.00 0.60 0.15 99 1012.0
20260507120049 59 90 0.0 2.0 0.00 0.60 0.15 99 1011.3
20260507114604 59 90 0.0 3.0 0.00 0.60 0.15 99 1011.5
20260507113103 59 90 1.0 3.0 0.01 0.60 0.15 99 1011.3
20260507111546 59 87 0.0 3.0 0.01 0.60 0.15 98 1011.2
20260507110040 60 126 2.0 8.0 0.01 0.60 0.15 98 1011.3
20260507104542 61 85 1.0 3.0 0.01 0.60 0.15 98 1010.8
20260507103033 62 237 1.0 8.0 0.00 0.59 0.14 98 1010.5
20260507101531 64 240 1.0 3.0 0.04 0.59 0.14 99 1010.1
20260507100030 64 88 0.0 3.0 0.05 0.59 0.14 100 1009.7